TimeMST,TemperatureF,Dew PointF,Humidity,Sea Level PressureIn,VisibilityMPH,Wind Direction,Wind SpeedMPH,Gust SpeedMPH,PrecipitationIn,Events,Conditions,WindDirDegrees,DateUTC
12:53 AM,35.1,24.1,64,30.06,10.0,WSW,19.6,36.8,N/A,,Mostly Cloudy,250,2013-12-24 07:53:00
1:53 AM,35.1,23.0,61,30.06,10.0,Variable,4.6,-,N/A,,Overcast,0,2013-12-24 08:53:00
2:25 AM,33.8,21.2,60,30.07,10.0,SSW,8.1,20.7,N/A,,Mostly Cloudy,210,2013-12-24 09:25:00
2:53 AM,33.1,21.9,64,30.04,10.0,SW,17.3,-,N/A,,Partly Cloudy,230,2013-12-24 09:53:00
3:53 AM,34.0,21.9,61,30.03,10.0,SW,16.1,-,N/A,,Partly Cloudy,220,2013-12-24 10:53:00
4:53 AM,34.0,21.9,61,30.01,10.0,SW,13.8,-,N/A,,Overcast,230,2013-12-24 11:53:00
5:53 AM,35.1,21.9,59,29.99,10.0,West,12.7,-,N/A,,Overcast,260,2013-12-24 12:53:00
6:53 AM,34.0,21.9,61,29.98,10.0,West,26.5,40.3,N/A,,Mostly Cloudy,270,2013-12-24 13:53:00
7:53 AM,34.0,21.0,59,29.99,9.0,West,23.0,33.4,0.00,,Overcast,260,2013-12-24 14:53:00
8:33 AM,32.0,24.8,75,30.02,1.2,West,21.9,-,0.00,Snow,Light Snow,270,2013-12-24 15:33:00
8:37 AM,30.2,24.8,80,30.02,0.8,West,18.4,26.5,0.00,Snow,Light Snow,280,2013-12-24 15:37:00
8:44 AM,30.2,26.6,86,30.02,0.2,West,18.4,-,0.00,Fog-Snow,Snow,280,2013-12-24 15:44:00
8:53 AM,30.0,28.0,92,30.02,0.5,WNW,16.1,-,0.00,Fog-Snow,Light Snow,290,2013-12-24 15:53:00
8:56 AM,30.2,28.4,93,30.02,1.0,WNW,17.3,-,0.00,Snow,Light Snow,290,2013-12-24 15:56:00
9:05 AM,30.2,28.4,93,30.03,0.8,West,16.1,-,0.00,Snow,Light Snow,260,2013-12-24 16:05:00
9:20 AM,30.2,28.4,93,30.03,0.5,West,19.6,25.3,0.00,Fog-Snow,Light Snow,260,2013-12-24 16:20:00
9:31 AM,30.2,28.4,93,30.03,0.8,West,13.8,-,0.00,Snow,Light Snow,260,2013-12-24 16:31:00
9:36 AM,28.4,26.6,93,30.03,2.5,WSW,12.7,-,0.00,Snow,Light Snow,240,2013-12-24 16:36:00
9:40 AM,30.2,28.4,93,30.03,4.0,WSW,11.5,-,0.00,Snow,Light Snow,240,2013-12-24 16:40:00
9:53 AM,32.0,25.0,75,30.05,10.0,West,24.2,31.1,0.00,,Mostly Cloudy,270,2013-12-24 16:53:00
10:19 AM,30.2,24.8,80,30.08,1.2,NW,27.6,39.1,0.00,Snow,Light Snow,320,2013-12-24 17:19:00
10:21 AM,28.4,24.8,86,30.09,0.5,NNW,21.9,39.1,0.00,Fog-Snow,Light Snow,330,2013-12-24 17:21:00
10:31 AM,24.8,23.0,93,30.09,0.2,North,25.3,29.9,0.00,Fog-Snow,Light Snow,350,2013-12-24 17:31:00
10:53 AM,25.0,21.9,88,30.13,0.2,NNW,19.6,29.9,0.00,Fog-Snow,Snow,340,2013-12-24 17:53:00
11:08 AM,24.8,21.2,86,30.10,0.5,NNW,12.7,26.5,0.00,Fog-Snow,Light Snow,340,2013-12-24 18:08:00
11:15 AM,24.8,21.2,86,30.11,1.0,NNW,19.6,24.2,0.00,Snow,Light Snow,330,2013-12-24 18:15:00
11:28 AM,24.8,21.2,86,30.11,0.5,NNW,20.7,26.5,0.00,Fog-Snow,Light Snow,340,2013-12-24 18:28:00
11:40 AM,24.8,19.4,80,30.11,1.2,North,19.6,29.9,0.00,Snow,Light Snow,350,2013-12-24 18:40:00
11:48 AM,24.8,19.4,80,30.11,2.5,NNW,16.1,25.3,0.00,Snow,Light Snow,340,2013-12-24 18:48:00
11:53 AM,24.1,21.0,88,30.15,1.5,NNW,18.4,25.3,0.00,Snow,Light Snow,340,2013-12-24 18:53:00
12:02 PM,24.8,21.2,86,30.11,0.8,NNW,16.1,-,0.00,Snow,Light Snow,330,2013-12-24 19:02:00
12:07 PM,26.6,21.2,80,30.11,2.0,NNW,18.4,-,0.00,Snow,Light Snow,330,2013-12-24 19:07:00
12:18 PM,24.8,21.2,86,30.11,0.8,NNW,17.3,26.5,0.00,Snow,Light Snow,340,2013-12-24 19:18:00
12:26 PM,24.8,19.4,80,30.11,0.5,NNW,23.0,29.9,0.00,Snow,Snow,330,2013-12-24 19:26:00
12:33 PM,24.8,19.4,80,30.11,1.0,NNW,20.7,29.9,0.00,Snow,Light Snow,340,2013-12-24 19:33:00
12:49 PM,24.8,21.2,86,30.12,0.8,NNW,19.6,-,0.00,Snow,Light Snow,330,2013-12-24 19:49:00
12:53 PM,25.0,21.9,88,30.14,0.8,NW,20.7,25.3,0.00,Snow,Light Snow,320,2013-12-24 19:53:00
1:02 PM,24.8,21.2,86,30.12,1.8,NW,21.9,-,0.00,Snow,Light Snow,320,2013-12-24 20:02:00
1:06 PM,24.8,19.4,80,30.12,3.0,NW,21.9,-,0.00,Snow,Light Snow,320,2013-12-24 20:06:00
1:53 PM,25.0,18.0,75,30.16,10.0,NW,26.5,-,0.00,,Mostly Cloudy,310,2013-12-24 20:53:00
2:53 PM,24.1,17.1,75,30.19,10.0,NW,26.5,33.4,N/A,,Clear,320,2013-12-24 21:53:00
3:53 PM,23.0,14.0,68,30.22,10.0,NW,21.9,32.2,N/A,,Clear,320,2013-12-24 22:53:00
4:53 PM,18.0,12.0,78,30.28,10.0,NNW,9.2,-,N/A,,Clear,330,2013-12-24 23:53:00
5:53 PM,12.9,9.0,84,30.31,10.0,Calm,Calm,-,N/A,,Clear,0,2013-12-25 00:53:00
6:53 PM,12.0,8.1,84,30.33,10.0,South,6.9,-,N/A,,Clear,190,2013-12-25 01:53:00
7:53 PM,10.0,6.1,84,30.33,10.0,SW,10.4,-,N/A,,Clear,220,2013-12-25 02:53:00
8:53 PM,14.0,7.0,74,30.32,10.0,WSW,10.4,-,N/A,,Clear,240,2013-12-25 03:53:00
9:53 PM,16.0,7.0,68,30.30,10.0,West,13.8,-,N/A,,Clear,260,2013-12-25 04:53:00
10:53 PM,17.1,6.1,62,30.35,10.0,SW,15.0,23.0,N/A,,Clear,230,2013-12-25 05:53:00
11:53 PM,18.0,7.0,62,30.36,10.0,WSW,17.3,-,N/A,,Clear,250,2013-12-25 06:53:00